Wind_Speed
9 9 9 9 9 9 9 9 9 9 9 10 11 11 12 12 12 12 12 13 13 13 13 13 14 15 17 17 17 18 19 19 19 21 22 22 21 22 22 23 24 25 26
10 9 9 9 9 9 9 9 9 9 9 10 11 11 11 11 11 12 12 12 13 13 13 14 15 15 16 17 18 19 20 20 21 21 23 24 24 24 24 25 26 27 27
10 9 9 9 9 9 9 10 10 9 10 10 10 10 10 10 11 11 11 12 12 13 14 15 16 16 17 18 19 20 20 21 22 22 23 24 24 25 25 26 27 28 29
9 9 8 8 8 9 9 9 10 10 10 10 11 11 11 11 11 11 11 12 12 12 13 14 15 16 17 18 19 20 21 22 23 23 23 24 25 26 26 27 28 28 30
9 8 8 8 9 9 9 10 10 10 10 10 11 11 11 11 11 12 12 13 13 13 14 15 15 16 17 18 19 20 21 22 23 23 24 25 26 26 27 28 29 30 30
10 9 9 10 10 10 10 10 10 9 10 11 10 10 11 11 11 12 13 15 14 14 15 15 16 17 18 19 19 20 21 22 23 24 25 25 26 27 27 28 30 31 32
11 10 11 11 11 11 11 11 10 10 11 11 10 11 11 12 13 13 14 15 15 15 15 16 17 18 18 19 21 21 21 22 23 25 25 26 27 27 28 29 31 32 32
12 11 12 12 11 12 11 11 11 11 11 11 12 12 13 14 15 15 16 17 17 17 17 18 18 19 20 21 21 22 23 24 24 25 26 27 28 29 29 30 32 33 33
13 12 12 12 13 13 12 12 12 12 13 13 13 14 14 15 16 17 17 18 18 19 19 20 21 22 22 22 22 23 24 25 26 27 28 28 29 30 31 32 33 33 34
14 13 12 13 13 14 13 13 13 14 14 14 15 15 16 17 17 18 19 20 20 20 21 22 22 23 24 24 24 24 25 26 27 28 28 29 30 31 32 33 33 34 35
14 14 13 14 14 14 15 15 15 15 15 16 16 17 17 18 19 20 21 21 21 22 23 23 24 25 24 24 25 26 27 27 28 29 30 31 32 33 33 34 35 36 36
14 14 14 15 15 14 15 15 15 16 16 16 17 17 18 19 20 21 21 22 23 24 24 24 25 25 25 26 26 27 28 29 30 31 31 32 33 34 35 36 36 37 37
15 15 15 15 15 15 16 16 16 17 17 18 19 20 21 21 21 21 21 22 23 24 25 25 26 26 27 27 28 29 30 31 32 32 33 34 35 36 36 36 36 37 36
16 16 15 16 16 17 18 17 18 18 19 20 21 21 21 21 21 22 23 23 25 26 26 26 27 27 28 29 30 30 32 33 33 34 35 36 36 36 36 35 36 36 35
16 16 16 17 17 18 18 18 19 20 21 21 21 22 22 22 22 23 24 25 26 26 27 27 28 29 29 30 31 32 33 34 35 36 36 36 36 36 35 35 35 35 34
17 17 17 17 18 18 18 19 20 21 21 22 22 22 23 23 23 24 25 26 27 28 28 29 30 30 31 32 33 34 35 35 35 36 36 36 35 35 35 35 35 34 34
18 18 18 18 18 18 18 19 19 20 21 22 22 24 25 25 25 26 27 28 28 29 30 31 32 33 34 35 35 35 35 35 35 35 34 34 35 35 35 34 34 34 34
20 20 19 18 19 20 20 20 21 22 23 23 23 25 26 26 27 27 28 29 30 30 31 33 34 35 35 35 35 35 35 35 35 35 34 34 35 34 34 34 34 33 33
22 21 20 21 21 22 22 22 23 23 24 25 26 27 27 28 28 29 30 31 32 32 33 34 35 36 36 36 35 35 35 35 35 35 35 35 34 34 33 33 32 32 32
22 22 22 22 22 23 24 24 24 25 26 27 28 28 29 29 30 31 31 32 33 33 34 35 36 36 35 35 35 34 34 35 35 35 34 34 34 33 32 32 32 31 31
23 23 23 23 23 24 24 25 26 27 28 28 30 30 30 30 31 31 32 32 33 34 35 35 35 35 34 34 34 34 34 34 34 34 33 33 32 32 32 32 31 31 31
24 25 25 25 25 25 25 26 27 28 29 30 30 30 30 31 32 31 32 33 33 34 34 34 34 34 33 33 33 33 33 33 33 32 32 31 31 31 31 31 31 31 30
26 26 25 25 25 26 27 27 29 29 30 30 30 30 31 31 31 32 32 33 33 33 33 32 33 33 33 33 32 32 32 32 32 31 31 31 31 31 31 31 32 31 31
26 26 26 26 26 26 27 28 28 29 29 29 29 30 31 31 31 31 31 32 32 32 32 32 33 32 32 32 32 32 31 31 31 31 31 31 31 31 31 31 31 31 31
26 25 26 26 26 27 27 28 29 29 29 29 29 30 30 31 31 31 31 31 32 32 32 32 32 32 32 32 32 31 31 31 31 31 31 31 31 31 31 31 31 31 30
26 25 25 26 26 27 27 28 28 29 29 29 29 30 30 30 31 31 31 31 32 32 32 32 32 32 31 31 31 31 31 31 31 31 31 31 31 30 30 30 30 30 29
Wind_Direction
306 301 301 298 294 298 299 295 289 288 293 296 301 305 304 303 302 299 297 296 293 288 286 285 283 282 285 285 285 286 288 289 288 287 288 287 287 288 288 289 289 289 289
310 305 299 295 297 295 295 294 290 292 294 296 301 305 307 307 308 303 299 297 297 293 288 286 287 287 287 286 285 287 289 290 290 288 287 286 286 288 288 288 288 290 290
311 305 299 294 297 298 297 294 296 300 298 296 300 309 313 315 315 313 307 305 302 299 297 290 286 287 289 288 288 288 289 291 292 292 290 288 288 289 289 289 289 290 291
311 306 299 300 303 302 302 299 298 300 300 294 298 305 308 311 315 317 316 315 309 304 303 299 293 293 293 292 291 290 290 292 293 294 292 291 290 290 291 291 291 292 292
308 306 304 306 308 307 303 301 300 298 299 299 298 301 304 307 311 314 317 315 313 308 306 305 301 299 300 299 297 296 295 294 294 295 295 294 294 294 292 291 291 294 294
304 306 305 308 309 308 306 306 305 301 300 301 298 302 303 304 309 314 314 315 315 312 308 305 304 303 302 302 302 301 302 300 297 295 295 295 298 299 298 296 295 296 295
304 303 301 300 304 305 304 305 306 303 302 300 299 301 300 302 307 312 314 315 316 313 311 308 306 305 305 304 302 302 302 301 299 299 297 298 299 299 299 298 298 298 297
301 299 299 297 299 303 302 301 302 302 301 298 299 300 300 301 305 308 312 314 313 311 310 311 309 308 308 305 303 302 302 302 302 302 301 299 299 300 299 299 299 299 298
296 295 295 295 295 297 298 299 300 300 299 297 297 298 299 302 304 306 309 309 309 309 308 307 306 306 306 305 304 303 303 303 304 305 303 301 301 302 302 301 300 300 300
293 291 292 294 295 294 293 294 294 295 295 297 297 297 299 302 304 305 306 307 308 307 307 307 306 305 304 305 305 304 304 305 305 305 305 304 304 305 304 303 302 302 302
289 289 291 293 295 295 293 296 294 293 294 296 298 298 299 301 303 304 305 305 307 307 306 307 308 307 306 307 307 306 305 306 306 306 305 305 305 305 305 304 304 304 305
291 291 292 295 295 297 296 296 297 295 294 295 296 299 299 300 303 305 305 306 306 307 308 308 308 308 308 307 307 306 306 306 306 306 306 306 306 306 305 305 305 306 306
292 293 293 296 296 295 295 295 295 296 297 297 298 298 299 300 302 305 307 308 308 309 310 310 309 308 307 307 307 307 307 307 307 307 307 307 307 307 306 306 306 307 307
292 294 292 293 295 295 294 291 292 294 296 297 299 299 299 300 303 307 309 310 310 310 309 309 309 309 308 307 307 307 308 308 308 308 308 308 308 307 307 307 307 308 308
291 293 293 294 294 294 294 293 292 293 296 297 299 300 302 303 305 307 308 309 310 310 310 310 310 310 309 309 309 309 309 309 309 309 309 309 308 307 307 307 307 308 308
288 290 292 295 295 297 297 297 296 296 296 298 299 300 302 303 304 306 307 307 308 309 310 310 310 310 310 310 310 310 310 310 310 310 311 311 310 309 309 308 308 307 307
286 290 291 292 294 296 297 298 299 298 299 299 299 300 302 303 304 305 306 306 307 308 309 309 309 310 310 310 310 311 311 311 311 311 312 312 311 311 310 310 309 308 308
284 287 289 289 291 293 294 296 298 298 299 299 300 302 303 304 305 305 305 306 306 307 308 309 309 310 310 310 311 311 312 312 312 312 312 312 312 311 310 310 310 310 309
282 283 285 287 289 290 292 294 296 297 298 299 300 302 304 304 305 305 306 305 306 307 308 308 309 310 311 311 312 312 313 313 313 313 313 313 312 311 311 310 311 311 310
281 282 284 285 288 290 291 292 294 297 299 300 301 302 303 303 304 305 306 306 306 307 308 309 310 311 312 313 313 313 314 314 314 314 314 314 313 311 311 311 312 311 311
279 281 281 282 285 288 290 292 293 295 298 300 302 303 304 304 304 305 306 306 307 307 308 310 311 311 312 313 314 314 314 315 315 316 316 315 315 315 314 314 313 313 312
279 281 281 282 283 286 290 291 293 296 298 299 301 303 305 305 305 305 306 307 308 308 309 310 311 312 312 313 314 315 315 315 316 317 316 316 316 316 316 316 316 314 313
277 281 283 283 283 286 289 291 294 296 298 300 300 302 304 306 307 307 307 308 308 308 309 310 312 313 314 314 314 314 315 315 315 315 315 316 316 316 315 315 316 316 315
275 278 281 282 283 286 289 292 295 297 298 299 301 303 305 306 307 308 308 308 308 309 309 310 312 313 313 314 314 314 315 315 314 315 315 316 317 317 316 316 316 316 316
275 278 280 282 284 286 289 292 295 297 298 300 302 304 305 306 306 307 308 308 309 309 309 310 311 311 312 313 313 313 314 315 314 315 316 317 318 318 318 317 317 317 317
276 277 279 281 284 286 289 293 296 297 298 300 302 304 305 305 306 307 309 310 310 310 310 310 311 311 311 312 312 313 313 314 314 315 316 317 318 319 319 319 319 319 318
Height
5891 5890 5889 5888 5887 5887 5886 5886 5886 5885 5884 5884 5882 5881 5880 5878 5877 5876 5874 5873 5872 5871 5871 5870 5869 5868 5868 5867 5866 5865 5863 5862 5861 5859 5857 5855 5854 5853 5851 5850 5848 5847 5845
5889 5888 5887 5886 5885 5885 5884 5884 5883 5883 5882 5881 5880 5879 5877 5875 5874 5873 5872 5871 5869 5868 5867 5866 5865 5864 5863 5862 5861 5860 5858 5857 5855 5854 5852 5850 5848 5847 5845 5844 5842 5840 5838
5887 5886 5885 5884 5883 5883 5882 5882 5881 5880 5880 5879 5878 5876 5875 5873 5872 5870 5869 5868 5866 5864 5863 5861 5860 5859 5858 5857 5856 5855 5853 5851 5849 5848 5846 5844 5842 5841 5839 5837 5835 5833 5831
5886 5885 5884 5883 5882 5881 5880 5880 5879 5878 5877 5876 5875 5874 5873 5871 5870 5868 5867 5865 5863 5861 5859 5858 5856 5855 5854 5852 5850 5849 5847 5846 5844 5842 5840 5838 5837 5834 5833 5831 5828 5826 5823
5884 5883 5882 5881 5880 5879 5878 5877 5876 5875 5874 5873 5872 5871 5870 5869 5867 5866 5864 5862 5860 5858 5856 5854 5853 5851 5850 5848 5846 5844 5842 5840 5838 5837 5835 5833 5831 5828 5826 5824 5821 5819 5816
5882 5881 5880 5879 5878 5877 5876 5875 5873 5873 5872 5871 5870 5869 5868 5867 5865 5863 5861 5859 5857 5855 5853 5851 5849 5847 5846 5844 5841 5839 5837 5835 5833 5831 5829 5827 5824 5822 5819 5816 5814 5811 5808
5880 5879 5878 5877 5876 5875 5874 5873 5871 5870 5870 5869 5868 5867 5865 5864 5862 5861 5859 5856 5854 5852 5850 5848 5846 5844 5841 5839 5837 5835 5832 5830 5828 5825 5823 5820 5818 5815 5812 5809 5806 5803 5800
5878 5877 5876 5875 5874 5873 5871 5870 5869 5868 5867 5866 5865 5864 5863 5861 5859 5858 5856 5854 5851 5849 5847 5844 5842 5840 5837 5835 5832 5830 5827 5825 5822 5819 5817 5814 5811 5808 5805 5802 5798 5795 5792
5874 5873 5873 5872 5871 5870 5869 5868 5867 5866 5864 5863 5862 5861 5859 5858 5856 5854 5852 5850 5848 5846 5843 5840 5838 5835 5832 5830 5827 5824 5822 5819 5816 5813 5810 5807 5804 5800 5797 5794 5790 5786 5783
5871 5870 5869 5868 5867 5866 5865 5864 5863 5862 5861 5860 5859 5857 5856 5854 5852 5850 5848 5846 5844 5841 5839 5836 5833 5830 5827 5824 5822 5819 5816 5813 5810 5807 5803 5800 5796 5793 5789 5785 5781 5778 5774
5866 5866 5865 5865 5863 5862 5861 5861 5860 5859 5858 5856 5855 5853 5852 5850 5848 5846 5844 5841 5839 5837 5834 5831 5828 5825 5822 5819 5816 5813 5810 5806 5803 5799 5796 5792 5789 5785 5781 5777 5773 5769 5765
5863 5862 5862 5860 5859 5858 5857 5857 5856 5855 5854 5852 5850 5849 5847 5845 5843 5841 5839 5837 5834 5831 5829 5825 5822 5819 5816 5813 5810 5806 5803 5800 5796 5792 5788 5784 5780 5776 5772 5767 5763 5759 5755
5859 5858 5858 5856 5855 5854 5854 5853 5852 5851 5850 5848 5846 5844 5843 5841 5838 5836 5834 5831 5828 5826 5823 5820 5816 5813 5810 5807 5803 5800 5796 5792 5788 5784 5780 5776 5772 5767 5763 5758 5754 5749 5745
5856 5855 5854 5853 5851 5851 5850 5849 5848 5846 5845 5843 5841 5840 5838 5835 5833 5831 5828 5826 5823 5820 5817 5814 5810 5807 5804 5800 5796 5793 5789 5785 5780 5776 5772 5767 5763 5758 5754 5749 5745 5740 5736
5851 5850 5849 5848 5848 5846 5845 5844 5843 5842 5840 5839 5837 5835 5833 5831 5828 5826 5823 5820 5817 5814 5811 5807 5804 5800 5797 5793 5789 5785 5781 5776 5772 5767 5763 5758 5753 5749 5745 5740 5736 5731 5727
5847 5846 5845 5844 5843 5842 5841 5840 5838 5837 5835 5833 5832 5830 5827 5825 5822 5820 5817 5814 5811 5808 5805 5801 5797 5793 5789 5785 5781 5777 5772 5768 5763 5758 5754 5749 5745 5740 5736 5731 5727 5722 5718
5842 5841 5841 5840 5839 5838 5837 5835 5834 5832 5830 5828 5826 5824 5822 5819 5816 5814 5811 5808 5805 5801 5798 5794 5790 5786 5781 5777 5773 5768 5764 5759 5754 5750 5745 5740 5736 5731 5727 5722 5718 5714 5709
5837 5836 5836 5835 5834 5833 5832 5830 5829 5827 5825 5823 5820 5818 5816 5813 5810 5807 5804 5801 5797 5794 5790 5786 5782 5777 5773 5769 5764 5760 5755 5750 5746 5741 5736 5732 5727 5723 5718 5714 5709 5705 5701
5831 5831 5830 5829 5828 5827 5826 5824 5823 5821 5819 5816 5814 5812 5809 5806 5803 5800 5797 5793 5790 5786 5782 5778 5773 5769 5764 5760 5755 5751 5746 5742 5737 5732 5728 5723 5719 5714 5710 5705 5701 5697 5693
5825 5825 5824 5823 5822 5821 5819 5818 5816 5814 5812 5810 5807 5804 5802 5799 5796 5792 5789 5785 5781 5778 5773 5769 5765 5760 5756 5751 5747 5742 5738 5733 5729 5724 5719 5715 5710 5706 5702 5697 5693 5689 5685
5819 5818 5818 5817 5816 5815 5813 5811 5809 5808 5805 5803 5800 5797 5794 5791 5788 5784 5781 5777 5773 5769 5765 5761 5756 5752 5747 5743 5739 5734 5730 5725 5721 5716 5711 5707 5702 5698 5694 5689 5685 5681 5677
5811 5811 5811 5810 5809 5808 5806 5804 5802 5800 5798 5795 5793 5790 5786 5783 5780 5776 5772 5769 5765 5760 5756 5752 5748 5744 5739 5735 5731 5727 5722 5718 5713 5709 5704 5700 5695 5691 5686 5682 5678 5673 5669
5805 5804 5803 5803 5802 5801 5799 5797 5795 5793 5790 5788 5785 5782 5779 5775 5772 5768 5764 5760 5756 5752 5748 5744 5740 5736 5732 5727 5723 5719 5715 5710 5706 5701 5697 5693 5688 5683 5679 5675 5670 5666 5662
5797 5797 5796 5795 5794 5793 5791 5790 5787 5785 5783 5780 5777 5774 5771 5768 5764 5760 5756 5752 5748 5744 5740 5736 5732 5728 5724 5720 5715 5711 5707 5703 5699 5694 5690 5685 5681 5676 5672 5668 5663 5659 5654
5789 5789 5788 5788 5787 5785 5784 5782 5780 5777 5775 5772 5769 5766 5763 5759 5756 5752 5748 5744 5740 5736 5732 5728 5724 5720 5716 5712 5708 5704 5700 5695 5691 5687 5683 5678 5674 5669 5665 5660 5656 5652 5647
5781 5781 5781 5780 5779 5778 5776 5774 5772 5770 5767 5764 5762 5758 5755 5752 5748 5744 5740 5736 5732 5728 5724 5720 5716 5712 5708 5704 5700 5696 5692 5688 5684 5680 5675 5671 5667 5662 5658 5654 5649 5645 5640